This is the latest recevied weather packets stored in our database for station/object LRBC. If no packets are shown the sender has not sent any weather packets the latest 1 day(s).
| Time | Temp. | Humidity | Pressure | Rain* | Wind** | Luminosity | Snow |
|---|---|---|---|---|---|---|---|
| 1836274088 | 15° C | 82% | 1026 hPa | - | 0 m/s | - | - |
| 1778024027 | 10° C | 76% | 1014 hPa | - | 4.92 m/s, 170° | - | - |
| 1778023127 | 11.11° C | 72% | 1014 hPa | - | 5.81 m/s, 180° | - | - |
| 1778022228 | 11.11° C | 72% | 1014 hPa | - | 5.81 m/s, 180° | - | - |
| 1778021328 | 12.22° C | 67% | 1014 hPa | - | 6.71 m/s, 180° | - | - |
| 1778020427 | 12.22° C | 67% | 1014 hPa | - | 6.71 m/s, 180° | - | - |
| 1778019525 | 12.78° C | 67% | 1014 hPa | - | 6.71 m/s, 170° | - | - |
| 1778018628 | 12.78° C | 67% | 1014 hPa | - | 6.71 m/s, 170° | - | - |
| 1778017728 | 12.78° C | 72% | 1014 hPa | - | 6.71 m/s, 170° | - | - |
| 1778016828 | 12.78° C | 72% | 1014 hPa | - | 6.71 m/s, 170° | - | - |
| 1778015927 | 13.89° C | 67% | 1014 hPa | - | 6.26 m/s, 170° | - | - |
| 1778015028 | 13.89° C | 67% | 1014 hPa | - | 6.26 m/s, 170° | - | - |
| 1778014129 | 15° C | 63% | 1013 hPa | - | 6.71 m/s, 160° | - | - |
| 1778013227 | 15° C | 63% | 1013 hPa | - | 6.71 m/s, 160° | - | - |
| 1778012358 | 15° C | 63% | 1013 hPa | - | 4.47 m/s, 170° | - | - |
| 1778011428 | 15° C | 63% | 1013 hPa | - | 4.47 m/s, 170° | - | - |
| 1778010527 | 16.11° C | 59% | 1013 hPa | - | 4.02 m/s, 160° | - | - |
| 1778009627 | 16.11° C | 59% | 1013 hPa | - | 4.02 m/s, 160° | - | - |
| 1778008727 | 16.11° C | 59% | 1013 hPa | - | 4.02 m/s, 160° | - | - |
| 1778007827 | 16.11° C | 59% | 1013 hPa | - | 4.02 m/s, 160° | - | - |
| 1778006928 | 17.22° C | 52% | 1013 hPa | - | 3.58 m/s, 160° | - | - |
| 1778006028 | 17.22° C | 52% | 1013 hPa | - | 3.58 m/s, 160° | - | - |
| 1778005128 | 17.22° C | 52% | 1012 hPa | - | 3.13 m/s, 170° | - | - |
| 1778004228 | 17.22° C | 52% | 1012 hPa | - | 3.13 m/s, 170° | - | - |
| 1778003322 | 18.89° C | 46% | 1012 hPa | - | 3.58 m/s, 160° | - | - |
* Rain since midnight (hover to see other rain measurements)
** Current wind speed in m/s (hover to see current wind gust speed)